Le nostre stazioni meteo in Italia

Pubblicità
Il mio iltempo24.it
Bourg-St-Maurice, Francia (7497): Temperatura & dewpoint: 19.05.2019 08:00:00 - 25.05.2019 08:00:00 (CEST)Bourg-St-Maurice, Francia (7497): Temperatura -20cm & Temperatura -100cm: 19.05.2019 08:00:00 - 25.05.2019 08:00:00 (CEST)Bourg-St-Maurice, Francia (7497): velocità del vento & gusts: 19.05.2019 08:00:00 - 25.05.2019 08:00:00 (CEST)Bourg-St-Maurice, Francia (7497): direzione del vento: 19.05.2019 08:00:00 - 25.05.2019 08:00:00 (CEST)Bourg-St-Maurice, Francia (7497): ore di luce: 19.05.2019 08:00:00 - 25.05.2019 08:00:00 (CEST)Bourg-St-Maurice, Francia (7497): precipitazioni: 19.05.2019 08:00:00 - 25.05.2019 08:00:00 (CEST)
Data & Tempo tt [°C] td [°C] tt -20cm [°C] tt -100cm [°C] ff [km/h] ff [kn] fx [km/h] fx [kn] dd sd [min] rr [mm]
25.05.2019 08:00:00 - - - - - - - - - - -
25.05.2019 07:00:00 11,1 7,0 17,9 13,6 2 1 4 2 NNE 0 0,0
25.05.2019 06:00:00 10,6 6,7 18,0 13,6 3 2 5 3 NNO 0 0,0
25.05.2019 05:00:00 10,2 6,2 18,2 13,6 3 1 4 2 N 0 0,0
25.05.2019 04:00:00 11,1 6,0 18,4 13,6 2 1 8 4 N 0 0,0
25.05.2019 03:00:00 11,3 6,2 18,5 13,6 3 2 5 3 N 0 0,0
25.05.2019 02:00:00 11,7 6,2 18,7 13,5 2 1 5 3 NNO 0 -
25.05.2019 01:00:00 12,7 6,3 18,8 13,5 3 2 9 5 N 0 0,0
25.05.2019 00:00:00 14,2 5,8 19,0 13,5 4 2 13 7 NNO 0 0,0
24.05.2019 23:00:00 15,3 5,2 19,0 13,5 9 5 15 8 ONO 0 0,0
24.05.2019 22:00:00 16,7 4,7 19,1 13,5 8 4 16 9 ONO 0 0,0
24.05.2019 21:00:00 18,5 6,0 19,1 13,5 3 2 27 15 SSE 0 0,0
24.05.2019 20:00:00 20,0 4,5 19,0 13,5 3 1 18 10 O 27 0,0
24.05.2019 19:00:00 22,7 2,7 18,9 13,5 5 3 24 13 O 60 0,0
24.05.2019 18:00:00 22,9 2,4 18,7 13,4 10 5 35 19 NNO 60 0,0
24.05.2019 17:00:00 23,2 2,6 18,3 13,4 13 7 25 14 NNO 31 0,0
24.05.2019 16:00:00 23,7 1,3 17,9 13,4 8 5 26 14 N 56 0,0
24.05.2019 15:00:00 23,9 1,5 17,5 13,4 5 3 18 10 ESE 60 0,0
24.05.2019 14:00:00 23,2 2,1 17,1 13,4 6 3 18 10 SSO 58 0,0
24.05.2019 13:00:00 22,1 2,7 16,8 13,4 8 4 15 8 SSE 60 0,0
24.05.2019 12:00:00 21,1 2,8 16,5 13,4 4 2 13 7 S 60 0,0
24.05.2019 11:00:00 18,4 4,5 16,5 13,4 5 3 11 6 SSO 60 0,0
24.05.2019 10:00:00 16,0 4,1 16,5 13,3 4 2 8 4 SE 55 0,0
24.05.2019 09:00:00 13,2 4,3 16,6 13,3 2 1 6 3 S 39 0,0
24.05.2019 08:00:00 12,0 5,2 16,8 13,3 3 2 7 4 NE 60 0,0
24.05.2019 07:00:00 8,5 5,1 17,0 13,3 5 3 8 5 NNO 3 0,0
24.05.2019 06:00:00 7,9 5,2 17,1 13,3 3 2 7 4 N 0 0,0
24.05.2019 05:00:00 8,3 5,2 17,3 13,3 4 2 6 3 NNO 0 0,0
24.05.2019 04:00:00 9,0 5,4 17,5 13,3 2 1 6 4 N 0 0,0
24.05.2019 03:00:00 9,4 5,2 17,7 13,3 4 2 7 4 N 0 0,0
24.05.2019 02:00:00 10,3 5,5 17,9 13,3 0 0 5 3 N 0 0,0
24.05.2019 01:00:00 11,0 5,7 18,1 13,3 0 0 8 4 N 0 0,0
24.05.2019 00:00:00 12,2 5,8 18,2 13,3 3 2 6 4 N 0 0,0
23.05.2019 23:00:00 13,8 5,4 18,3 13,3 3 1 14 7 NO 0 0,0
23.05.2019 22:00:00 15,5 3,9 18,4 13,3 6 4 24 13 NO 0 0,0
23.05.2019 21:00:00 16,6 4,0 18,4 13,3 5 3 16 9 ONO 0 0,0
23.05.2019 20:00:00 18,6 3,6 18,3 13,2 7 4 11 6 ONO 25 0,0
23.05.2019 19:00:00 22,7 2,7 18,1 13,2 4 2 16 9 OSO 60 0,0
23.05.2019 18:00:00 23,1 0,8 17,8 13,3 10 5 22 12 SSO 60 0,0
23.05.2019 17:00:00 23,8 3,1 17,4 13,2 9 5 24 13 S 60 0,0
23.05.2019 16:00:00 23,8 2,6 16,9 13,2 9 5 20 11 SSE 60 0,0
23.05.2019 15:00:00 22,9 0,7 16,4 13,2 5 3 13 7 ONO 60 0,0
23.05.2019 14:00:00 22,9 0,0 15,9 13,2 5 3 15 8 SSO 60 0,0
23.05.2019 13:00:00 21,6 1,8 15,5 13,2 5 3 15 8 SSO 60 0,0
23.05.2019 12:00:00 20,3 2,6 15,2 13,2 5 3 12 6 S 60 0,0
23.05.2019 11:00:00 17,4 2,9 15,2 13,2 5 3 9 5 ESE 60 0,0
23.05.2019 10:00:00 14,9 4,0 15,2 13,1 3 2 8 4 SSE 60 0,0
23.05.2019 09:00:00 12,2 4,2 15,4 13,2 4 2 7 4 ENE 60 0,0
23.05.2019 08:00:00 9,6 4,8 15,5 13,1 4 2 6 3 NNE 60 0,0
23.05.2019 07:00:00 6,1 4,4 15,8 13,2 3 2 6 3 N 3 0,0
23.05.2019 06:00:00 6,7 4,2 16,0 13,1 4 2 10 5 ONO 0 0,0
23.05.2019 05:00:00 6,9 4,6 16,2 13,2 3 1 8 4 N 0 0,0
23.05.2019 04:00:00 7,3 4,8 16,3 13,1 3 1 5 3 N 0 0,0
23.05.2019 03:00:00 8,0 4,9 16,5 13,1 3 1 5 3 N 0 0,0
23.05.2019 02:00:00 8,9 4,9 16,7 13,1 3 2 6 4 N 0 0,0
23.05.2019 01:00:00 9,8 5,4 16,9 13,1 2 1 5 3 N 0 0,0
23.05.2019 00:00:00 11,1 5,2 17,0 13,1 4 2 10 5 N 0 0,0
22.05.2019 23:00:00 12,3 5,0 17,1 13,1 4 2 18 10 O 0 0,0
22.05.2019 22:00:00 14,3 4,6 17,1 13,1 7 4 16 9 O 0 0,0
22.05.2019 21:00:00 15,2 5,1 17,1 13,1 5 3 12 6 O 0 0,0
22.05.2019 20:00:00 16,9 5,8 17,0 13,1 7 4 14 8 ONO 14 0,0
22.05.2019 19:00:00 19,1 4,8 16,9 13,1 4 2 32 18 S 15 0,0
22.05.2019 18:00:00 19,2 3,8 16,7 13,1 7 4 28 15 E 19 0,0
22.05.2019 17:00:00 21,0 4,5 16,5 13,1 7 4 22 12 E 18 0,0
22.05.2019 16:00:00 20,7 2,0 16,2 13,1 4 2 18 10 S 23 0,0
22.05.2019 15:00:00 19,5 2,4 15,8 13,1 3 2 13 7 N 1 0,0
22.05.2019 14:00:00 19,1 4,1 15,3 13,1 6 4 16 8 N 24 0,0
22.05.2019 13:00:00 20,0 4,1 14,8 13,1 5 3 16 9 S 57 0,0
22.05.2019 12:00:00 18,9 4,3 14,6 13,1 8 4 17 9 SSE 60 0,0
22.05.2019 11:00:00 17,0 4,3 14,5 13,1 6 3 13 7 S 60 0,0
22.05.2019 10:00:00 14,4 6,5 14,6 13,1 3 1 8 4 SSO 60 0,0
22.05.2019 09:00:00 11,9 6,4 14,6 13,1 2 1 5 3 SSE 60 0,0
22.05.2019 08:00:00 9,6 7,0 14,8 13,1 2 1 4 2 ESE 41 0,0
22.05.2019 07:00:00 7,1 5,7 15,0 13,0 3 2 6 3 NNE 0 0,0
22.05.2019 06:00:00 6,9 5,5 15,1 13,1 2 1 5 3 NNE 0 0,0
22.05.2019 05:00:00 7,6 5,9 15,3 13,1 2 1 5 3 NNO 0 0,0
22.05.2019 04:00:00 9,1 6,4 15,4 13,1 5 3 8 4 NO 0 0,0
22.05.2019 03:00:00 9,2 7,0 15,5 13,1 0 0 5 3 N 0 0,0
22.05.2019 02:00:00 9,7 7,0 15,6 13,0 0 0 5 3 N 0 0,0
22.05.2019 01:00:00 10,7 7,4 15,7 13,1 2 1 7 4 N 0 0,0
22.05.2019 00:00:00 11,2 7,1 15,9 13,1 0 0 12 7 N 0 0,0
21.05.2019 23:00:00 11,8 6,7 15,9 13,1 5 3 14 8 NO 0 0,0
21.05.2019 22:00:00 12,3 7,0 16,0 13,1 7 4 13 7 NO 0 0,0
21.05.2019 21:00:00 13,7 6,8 16,0 13,1 3 2 17 9 ONO 38 0,0
21.05.2019 20:00:00 15,3 5,5 15,9 13,1 9 5 22 12 OSO 39 0,0
21.05.2019 19:00:00 16,8 6,9 15,7 13,1 5 3 17 9 S 0 0,0
21.05.2019 18:00:00 16,9 6,4 15,5 13,0 5 3 16 9 S 0 0,0
21.05.2019 17:00:00 17,7 6,5 15,3 13,1 5 3 16 9 S 16 0,0
21.05.2019 16:00:00 17,4 6,9 15,1 13,1 9 5 19 10 SSO 10 0,0
21.05.2019 15:00:00 16,6 7,2 14,8 13,0 9 5 20 11 S 5 0,0
21.05.2019 14:00:00 16,4 6,2 14,5 13,1 2 1 12 7 S 10 0,0
21.05.2019 13:00:00 15,0 8,0 14,4 13,1 5 3 11 6 S 0 0,0
21.05.2019 12:00:00 13,8 8,6 14,3 13,0 4 2 9 5 SO 4 0,0
21.05.2019 11:00:00 12,9 8,6 14,2 13,1 2 1 9 5 S 0 0,0
21.05.2019 10:00:00 11,6 8,4 14,2 13,1 6 4 16 9 SSO 10 0,0
21.05.2019 09:00:00 10,6 8,9 14,3 13,1 6 4 14 8 SSO 0 0,0
21.05.2019 08:00:00 9,8 8,7 14,3 13,0 4 2 10 6 SSO 0 0,0
21.05.2019 07:00:00 9,4 8,6 14,4 13,0 4 2 10 5 SSO 0 0,0
21.05.2019 06:00:00 9,3 8,7 14,6 13,1 5 3 14 8 SSO 0 0,0
21.05.2019 05:00:00 9,4 8,5 14,6 13,1 4 2 11 6 SO 0 0,0
21.05.2019 04:00:00 9,4 8,5 14,7 13,1 3 2 11 6 OSO 0 0,0
21.05.2019 03:00:00 9,4 8,6 14,8 13,0 2 1 6 4 SO 0 0,0
21.05.2019 02:00:00 9,5 8,7 14,9 13,1 4 2 13 7 S 0 0,0
21.05.2019 01:00:00 9,6 8,8 15,0 13,0 4 2 9 5 SSO 0 0,0
21.05.2019 00:00:00 9,6 8,7 15,1 13,0 3 2 14 7 OSO 0 0,0
20.05.2019 23:00:00 9,7 8,8 15,2 13,0 6 3 16 9 SSO 0 0,0
20.05.2019 22:00:00 9,9 8,8 15,2 13,0 7 4 12 7 SSO 0 0,2
20.05.2019 21:00:00 10,3 8,7 15,2 13,0 6 3 17 9 SSO 0 0,0
20.05.2019 20:00:00 10,9 8,6 15,2 13,0 7 4 16 9 SO 0 0,0
20.05.2019 19:00:00 11,6 8,8 15,2 13,0 5 3 22 12 OSO 0 0,2
20.05.2019 18:00:00 12,6 7,9 15,1 13,0 9 5 26 14 S 0 0,0
20.05.2019 17:00:00 13,2 8,9 15,0 13,0 10 5 28 15 SSO 0 0,0
20.05.2019 16:00:00 13,6 8,2 14,9 13,0 8 4 26 14 S 0 0,0
20.05.2019 15:00:00 12,8 9,4 14,8 13,0 5 3 21 11 SSO 2 0,0
20.05.2019 14:00:00 11,8 9,0 14,7 13,0 10 5 19 10 SO 0 0,0
20.05.2019 13:00:00 11,7 9,3 14,6 13,0 6 3 14 7 SO 0 0,2
20.05.2019 12:00:00 10,4 8,0 14,6 13,0 5 3 10 5 OSO 0 0,2
20.05.2019 11:00:00 9,9 8,2 14,6 13,0 0 0 4 2 N 0 0,2
20.05.2019 10:00:00 8,9 7,3 14,7 13,0 0 0 3 2 N 0 0,2
20.05.2019 09:00:00 8,6 7,5 14,7 13,0 0 0 3 2 N 0 0,4
20.05.2019 08:00:00 8,2 7,1 14,9 13,0 0 0 4 2 N 0 0,4
20.05.2019 07:00:00 7,9 7,0 15,0 13,0 0 0 3 2 N 0 0,6
20.05.2019 06:00:00 7,9 6,8 15,1 13,0 0 0 3 1 N 0 0,4
20.05.2019 05:00:00 8,0 7,1 15,3 13,0 0 0 2 1 N 0 0,6
20.05.2019 04:00:00 8,2 7,3 15,4 13,0 0 0 4 2 N 0 1,6
20.05.2019 03:00:00 8,4 7,8 15,6 13,0 0 0 4 2 N 0 1,0
20.05.2019 02:00:00 8,5 7,7 15,7 13,0 0 0 2 1 N 0 2,3
20.05.2019 01:00:00 8,7 7,9 15,9 13,0 0 0 5 3 N 0 2,6
20.05.2019 00:00:00 9,4 8,9 15,9 12,9 0 0 9 5 N 0 1,6
19.05.2019 23:00:00 9,5 9,0 16,0 12,9 3 2 8 4 S 0 0,8
19.05.2019 22:00:00 9,8 9,3 16,1 12,9 3 2 8 4 SSO 0 0,4
19.05.2019 21:00:00 9,9 9,3 16,1 12,9 4 2 9 5 SO 0 0,0
19.05.2019 20:00:00 10,1 9,5 16,1 12,9 3 2 10 6 SSO 0 0,8
19.05.2019 19:00:00 10,1 9,2 16,1 12,9 3 2 29 15 SO 0 0,6
19.05.2019 18:00:00 11,4 8,1 16,0 12,9 12 7 32 18 SSO 5 0,0
19.05.2019 17:00:00 13,5 8,5 15,8 12,9 12 6 35 19 S 22 0,0
19.05.2019 16:00:00 15,1 9,5 15,6 12,9 11 6 26 14 S 26 0,0
19.05.2019 15:00:00 15,0 8,0 15,4 12,9 10 5 18 10 S 35 0,4
19.05.2019 14:00:00 13,2 9,4 15,3 12,9 5 3 20 11 SSO 0 0,2
19.05.2019 13:00:00 14,1 7,6 15,1 12,9 8 4 22 12 S 2 0,0
19.05.2019 12:00:00 14,5 7,1 14,9 12,9 11 6 27 15 S 41 0,0
19.05.2019 11:00:00 13,7 6,1 14,8 12,9 6 4 16 9 SSO 15 0,0
19.05.2019 10:00:00 12,7 6,3 14,7 12,9 4 2 11 6 S 24 0,0
19.05.2019 09:00:00 11,4 7,7 14,8 12,9 5 3 10 5 S 39 0,0
19.05.2019 08:00:00 9,5 8,3 14,9 12,9 0 0 4 2 N 3 0,0

tt = Temperatura
td = dewpoint
tt -20cm = Temperatura -20cm
tt -100cm = Temperatura -100cm
ff = velocità del vento
fx = gusts
dd = direzione del vento
sd = ore di luce
rr = precipitazioni

Stazioni seguenti

WeatherPro
AMSI
MeteoEarth